Other Surface Observations
Issued by NWS Tucson, AZ

Home | Current Version | Previous Version | Text Only | Print | Product List | Glossary On
Versions: 1 2 3 4 5 6 7 8 9 10 11 12 13 14 15 16 17 18 19 20 21 22 23 24 25 26 27 28 29 30 31 32 33 34 35 36 37 38 39 40 41 42 43 44 45 46 47 48 49 50
968
SXUS55 KTWC 280015
OSOTWC

WEATHER ROUNDUP FOR SOUTHEAST ARIZONA
NATIONAL WEATHER SERVICE TUCSON AZ
515 PM MST MON MAR 27 2017

AZZ504>506-514-280115-
LOCATION       SKY/WX    TMP DP  RH WIND       PRES   REMARKS
TUCSON         SUNNY     79  34  19 W20G26    29.79F
DAVIS-MONTHAN  SUNNY     78  35  21 W15G21    29.78F
CHILDRENS PARK N/A      N/A N/A  17 W9                PIMA CO DEQ
ALVERNON/22ND  N/A       79 N/A N/A W11               PIMA CO DEQ
CHERRY/GLENN   N/A       80 N/A N/A W10               PIMA CO DEQ
TANGERINE      N/A       77 N/A N/A W10               PIMA CO DEQ
CONTL RANCH    N/A       79  30  17 SW11              PIMA CO DEQ
GRANT/1ST      N/A       79  27  15 W9                PIMA CO DEQ
CRAYCROFT/22ND N/A       77  29  17 W13               PIMA CO DEQ
GOLFLINKS/KOLB N/A       79  29  16 W10               PIMA CO DEQ
AJO/12TH       N/A       79  30  17 SW11              PIMA CO DEQ
FAIRGROUNDS    N/A       75 N/A N/A SW14              PIMA CO DEQ
SAGUARO        N/A       79  30  17 W10G17            *SABINO CYN
SAN CARLOS     N/A       75  32  21 SW10G20           *SAN CARLOS
GREEN VALLEY   N/A       78  31  18 SW13              PIMA CO DEQ
HORSE CAMP CYN N/A       71  29  21 SW19G28           *ARAVAIPA CYN
RINCON MTNS    NOT AVBL
$$

AZZ509>511-280115-
LOCATION       SKY/WX    TMP DP  RH WIND       PRES   REMARKS
SAFFORD        CLOUDY    72  28  19 NW15      29.77F
STRAY HORSE    N/A       46  27  48 N/A               *
TRAIL CABIN    N/A       56  27  32 NW7G14            *N OF GRANVILLE
BLACK HILLS    NOT AVBL
DRY LAKE       N/A       51  26  37 SW5G13            *NATANES MTNS
NOON CREEK     N/A       63  31  30 NW6G23            *PINALENO MTNS
COLUMBINE      N/A       40  28  62 SW5G17            *PINALENO MTNS
GUTHRIE        N/A       57  25  29 W11G20            *SW OF GUTHRIE
$$

AZZ502-503-513-280115-
LOCATION       SKY/WX    TMP DP  RH WIND       PRES   REMARKS
NOGALES        CLOUDY    73  35  25 SW22      29.86F
SELLS          N/A       78  35  21 NE11G20           *
SASABE         N/A       76  33  21 SW13G21           *ALTAR VLY
HOPKINS        N/A       60  32  34 W8G20             *SANTA RITA MTNS
CARR CYN       N/A       66  31  27 E3G13             *W OF HEREFORD
$$

AZZ507-508-512-280115-
LOCATION       SKY/WX    TMP DP  RH WIND       PRES   REMARKS
SIERRA VISTA   CLOUDY    70  31  24 W16G25    29.89F
DOUGLAS        CLOUDY    74  24  15 W18G31    29.83F
EMPIRE MTNS    NOT AVBL
MULESHOE RANCH N/A       68  28  22 W7G18             *PRESERVE
HEADQUARTERS   NOT AVBL
$$

.............................NOTES.............................
THIS IS AN AUTOMATED COLLECTIVE WITH MINIMAL QUALITY CONTROL.
PIMA CO DEQ SITES HAVE NONSTANDARD WIND SENSOR HEIGHTS.
PIMA CO DEQ SITES DO NOT REPORT WIND GUSTS.
* INDICATES WIND SENSORS LOCATED AT 20 FEET INSTEAD OF 33 FEET.
..............................KEY..............................
SKY/WX - SKY CONDITION/WEATHER
TMP    - TEMPERATURE IN FAHRENHEIT
DP     - DEWPOINT IN FAHRENHEIT
RH     - RELATIVE HUMIDITY IN PERCENT
WIND   - DIRECTION AND SPEED IN MILES PER HOUR (MPH)
VRB    - VARIABLE WIND DIRECTION
PRES   - MEAN SEA LEVEL PRESSURE IN INCHES OF MERCURY
         F - FALLING PRESSURE   R - RISING PRESSURE
         S - STEADY PRESSURE
VSB    - VISIBILITY IN MILES
HX     - HEAT INDEX IN FAHRENHEIT
WCI    - WIND CHILL INDEX IN FAHRENHEIT
N/A    - NOT AVAILABLE
AFB    - AIR FORCE BASE
         DAVIS-MONTHAN IS DAVIS-MONTHAN AIR FORCE BASE
CYN    - CANYON
MTNS   - MOUNTAINS
NCA    - NATIONAL CONSERVATION AREA
NR     - NEAR
VLY    - VALLEY
CONTL  - CONTINENTAL
PIMA CO DEQ - PIMA COUNTY DEPT OF ENVIRONMENTAL QUALITY



USA.gov is the U.S. government's official web portal to all federal, state and local government web resources and services.